Tracking 33197 objects as of 18-Feb-2026
HD Live streaming from Space Station
objects crossing your sky now

STARLINK-30435

Track STARLINK-30435 now!
10-day predictions
STARLINK-30435 is classified as:


NORAD ID: 57842
Int'l Code: 2023-141C
Perigee: 481.5 km
Apogee: 483.4 km
Inclination: 53.2 °
Period: 94.1 minutes
Semi major axis: 6853 km
RCS: Unknown
Launch date: September 12, 2023
Source: United States (US)
Launch site: AIR FORCE WESTERN TEST RANGE (AFWTR)
Your satellite tracking list
Your tracking list is empty




NASA's NSSDC Master Catalog

Two Line Element Set (TLE):
1 57842U 23141C   26049.41146114  .00001182  00000-0  52071-4 0  9991
2 57842  53.1615  13.7017 0001384 102.1582 257.9574 15.30181810137371
Source of the keplerian elements: AFSPC